Ketchikan, AK

5:22 PM AKDT on September 24, 2018 (GMT -0800)
Ketchikan International

Weather History for PAKT - July, 2018

Change the Weather History Date:

Tuesday, July 24, 2018

  Actual Average Record
Temperature  
Mean Temperature 64 °F -  
Max Temperature 73 °F 66 °F 83 °F (1966)
Min Temperature 55 °F 51 °F 42 °F (1955)
Degree Days  
Heating Degree Days 1    
Growing Degree Days 14 (Base 50)    
Moisture  
Dew Point 57 °F    
Average Humidity 82    
Maximum Humidity 100    
Minimum Humidity 57    
Precipitation  
Precipitation 0.00 in - - ()
Sea Level Pressure  
Sea Level Pressure 30.21 in    
Wind  
Wind Speed 5 mph (SE)    
Max Wind Speed 10 mph    
Max Gust Speed -    
Visibility 6 miles    
Events Fog    
Averages and records for this station are not official NWS values.
T = Trace of Precipitation, MM = Missing Value Source: NWS Daily Summary

Daily Weather History Graph

Daily Weather History Graph

Search for Another Location

Airport or City:

Astronomy

Jul. 24, 2018 Rise Set
Actual Time 4:40 AM AKDT 9:05 PM AKDT
Civil Twilight 3:50 AM AKDT 9:55 PM AKDT
Nautical Twilight 2:31 AM AKDT 11:12 PM AKDT
Astronomical Twilight 1:25 AM AKDT 12:20 AM AKDT
Moon 6:58 PM AKDT (7/24) 2:07 AM AKDT (7/24)
Length of Visible Light 18h 04m
Length of Day
16h 24m
Waxing Gibbous, 92% of the Moon is Illuminated
Jul 24
Waxing Gibbous
Jul 27
Full
Aug 4
Last Quarter
Aug 11
New
Aug 17
First Quarter

Hourly Weather History & Observations

Time (AKDT) Temp. Dew Point Humidity Pressure Visibility Wind Dir Wind Speed Gust Speed Precip Events Conditions
12:53 AM 59.0 °F 57.0 °F 93% 30.19 in 10.0 mi SSE 3.5 mph - N/A   Clear
1:53 AM 57.9 °F 55.9 °F 93% 30.20 in 3.0 mi South 4.6 mph - N/A   Scattered Clouds
1:58 AM 57.9 °F 55.9 °F 93% 30.20 in 1.8 mi South 4.6 mph - N/A   Mostly Cloudy
2:19 AM 57.9 °F 57.0 °F 97% 30.20 in 0.8 mi SSE 5.8 mph - N/A   Mist
2:42 AM 57.9 °F 57.0 °F 97% 30.20 in 0.2 mi SE 4.6 mph - N/A Fog Fog
2:53 AM 57.9 °F 57.0 °F 97% 30.21 in 0.2 mi SE 4.6 mph - N/A Fog Fog
3:53 AM 55.9 °F 55.0 °F 97% 30.21 in 0.2 mi SSE 3.5 mph - N/A Fog Fog
4:53 AM 55.9 °F 55.0 °F 97% 30.21 in 0.2 mi SSE 5.8 mph - N/A Fog Fog
5:53 AM 55.9 °F 55.0 °F 97% 30.21 in 0.2 mi SSE 4.6 mph - N/A Fog Fog
6:16 AM 55.4 °F 55.4 °F 100% 30.21 in 0.2 mi SE 5.8 mph - N/A Fog Fog
6:53 AM 55.4 °F 55.4 °F 100% 30.22 in 0.2 mi SSE 3.5 mph - N/A Fog Fog
7:50 AM 57.2 °F 55.4 °F 94% 30.22 in 0.5 mi ESE 4.6 mph - N/A Fog Fog
7:53 AM 57.2 °F 55.4 °F 94% 30.22 in 0.2 mi SE 4.6 mph - N/A Fog Fog
8:53 AM 57.2 °F 55.4 °F 94% 30.23 in 0.2 mi ESE 6.9 mph - N/A Fog Fog
9:38 AM 61.0 °F 57.0 °F 87% 30.22 in 4.0 mi SE 5.8 mph - N/A   Scattered Clouds
9:53 AM 62.6 °F 57.2 °F 82% 30.22 in 10.0 mi ESE 5.8 mph - N/A   Clear
10:53 AM 68.0 °F 57.2 °F 68% 30.22 in 10.0 mi NNW 5.8 mph - N/A   Clear
11:31 AM 69.1 °F 57.9 °F 68% 30.22 in 10.0 mi NNW 8.1 mph - N/A   Clear
11:53 AM 69.8 °F 57.2 °F 64% 30.22 in 10.0 mi NW 8.1 mph - N/A   Clear
12:53 PM 70.0 °F 57.9 °F 65% 30.21 in 10.0 mi NW 6.9 mph - N/A   Clear
1:53 PM 71.6 °F 57.2 °F 60% 30.20 in 10.0 mi NNW 9.2 mph - N/A   Clear
2:53 PM 73.4 °F 57.2 °F 57% 30.20 in 10.0 mi NNW 10.4 mph - N/A   Clear
3:53 PM 73.4 °F 57.2 °F 57% 30.20 in 10.0 mi North 5.8 mph - N/A   Clear
4:53 PM 73.4 °F 57.2 °F 57% 30.20 in 10.0 mi Variable 3.5 mph - N/A   Clear
5:53 PM 71.6 °F 59.0 °F 64% 30.19 in 10.0 mi ENE 5.8 mph - N/A   Clear
6:53 PM 71.6 °F 57.2 °F 60% 30.19 in 10.0 mi Calm Calm - N/A   Clear
7:53 PM 69.8 °F 57.2 °F 64% 30.19 in 10.0 mi Calm Calm - N/A   Clear
8:53 PM 64.9 °F 60.1 °F 84% 30.21 in 10.0 mi ESE 5.8 mph - N/A   Clear
9:53 PM 61.0 °F 57.9 °F 90% 30.22 in 10.0 mi South 6.9 mph - N/A   Clear
10:53 PM 59.0 °F 57.0 °F 93% 30.23 in 10.0 mi South 5.8 mph - N/A   Clear
11:53 PM 57.9 °F 55.9 °F 93% 30.24 in 10.0 mi SSE 4.6 mph - N/A   Clear